[[{"header":{"parameterUnit":"m.s-1","parameterCategory":1,"la1":30.2991,"la2":30.254,"lo1":-89.0895,"lo2":-89.0444,"dy":0.0017,"dx":0.0017,"nx":28,"ny":28,"refTime":"2025-12-30T03:00:00:Z","depth":0,"parameterNumber":2,"parameterNumberName":"U-component_of_WINDS"},"data":[0,0,0,0,0,0,0,0,0,0,0,0,0,0,0,0,0,0,0,0,0,0,0,0,0,0,0,0,0,0,0,0,0,0,0,0,0,0,0,0,0,0,0,0,0,0,0,0,0,0,0,0,0,0,0,0,0,0,1.6289,1.6289,0,1.628,1.628,1.628,1.6258,1.6258,1.6257,1.6257,1.6247,1.6247,1.6247,0,0,0,0,0,0,0,0,0,0,0,0,0,1.6286,1.6286,1.6289,1.6289,1.6289,1.628,1.628,1.628,1.6258,1.6258,1.6257,1.6257,1.6247,1.6247,1.6247,0,0,0,0,0,0,0,0,0,0,0,0,0,1.6283,1.6286,1.6289,1.6277,1.6276,1.628,1.628,1.628,1.6259,1.6258,1.6257,1.6257,1.6247,1.6247,1.6247,1.6263,0,0,1.6248,1.6248,0,0,0,0,0,0,0,0,1.6284,1.6284,1.6279,1.6278,1.6276,1.627,1.6276,1.6274,1.6259,1.6265,1.6257,1.6256,1.6255,1.6255,1.6254,1.6262,1.6262,1.6248,1.6248,1.6248,1.6248,0,0,0,0,0,0,0,1.6284,1.6284,1.6285,1.6279,1.6277,1.6272,1.6271,1.6275,1.6264,1.6264,1.6263,1.6262,1.6254,1.6254,1.6254,1.6262,1.6248,1.6248,1.6249,1.6249,1.6283,1.6284,0,0,0,0,0,0,1.6286,1.6284,1.6286,1.6285,1.6278,1.6272,1.6271,1.6273,1.6264,1.6262,1.6263,1.6261,1.6254,1.6254,1.6254,1.6272,1.6248,1.6249,1.6249,1.6282,1.6283,1.6284,0,0,0,0,0,0,1.6286,1.6286,1.6286,1.6284,1.6284,1.6273,1.6275,1.6273,1.6273,1.6263,1.626,1.6265,1.6254,1.6253,1.6261,1.6271,1.6249,1.6249,1.6281,1.6282,1.6283,1.6308,0,0,0,0,0,0,1.6286,1.6286,1.6292,1.6285,1.6284,1.6294,1.6276,1.6273,1.6273,1.6271,1.6264,1.6262,1.6253,1.6261,1.6261,1.6271,1.6249,1.628,1.6282,1.6283,1.6306,1.631,1.6313,0,0,0,0,0,1.6286,1.6298,1.6292,1.6293,1.6291,1.6294,1.6294,1.6283,1.6274,1.628,1.6274,1.6262,1.627,1.6262,1.6262,1.6272,1.628,1.6281,1.6283,1.6304,1.6309,1.6313,0,0,0,0,0,0,1.6306,1.6297,1.629,1.6301,1.6299,1.629,1.6297,1.6288,1.6288,1.6286,1.6273,1.6272,1.6281,1.6277,1.6268,1.6287,1.6273,1.6275,1.6289,1.6293,1.6297,1.6297,1.6249,0,0,0,0,0,1.6312,1.6316,1.6308,1.6318,1.6317,1.6308,1.6309,1.6301,1.6298,1.6297,1.6291,1.6288,1.629,1.6291,1.6292,1.6305,1.6304,1.6313,1.6316,1.6319,1.632,1.6328,1.6332,1.629,1.629,1.629,0,0,1.6324,1.632,1.6323,1.6322,1.6319,1.6324,1.6307,1.6312,1.6315,1.6297,1.6304,1.63,1.6296,1.6307,1.6312,1.6304,1.6332,1.6321,1.6323,1.6323,1.633,1.6334,1.6338,1.6291,1.6291,1.629,0,0,1.6348,1.6345,1.6354,1.6352,1.6348,1.6342,1.6344,1.6338,1.6335,1.6342,1.633,1.6333,1.6336,1.6334,1.6334,1.6359,1.6349,1.636,1.6377,1.6385,1.6388,1.6391,1.6401,1.6405,1.6362,1.6362,1.6362,0,1.6364,1.637,1.6359,1.6365,1.6366,1.6351,1.636,1.6359,1.6356,1.6356,1.6348,1.6353,1.6349,1.636,1.6367,1.6366,1.6369,1.6361,1.6389,1.6392,1.6394,1.6403,1.6407,1.6363,1.6363,1.6363,1.6363,0,1.6389,1.6393,1.6401,1.6399,1.64,1.6408,1.6399,1.6402,1.6394,1.6389,1.6397,1.6393,1.6393,1.6395,1.6388,1.6405,1.6401,1.6391,1.6377,1.64,1.6408,1.6411,1.6365,1.6365,1.6364,1.6364,0,0,1.6424,1.6418,1.6421,1.6421,1.6417,1.642,1.6428,1.6429,1.6431,1.643,1.6436,1.644,1.6432,1.6431,1.6424,1.643,1.6452,1.642,1.6419,1.6426,1.6472,1.648,1.6484,1.6445,1.6446,1.6447,1.6472,0,1.6448,1.646,1.6452,1.6465,1.647,1.6457,1.6463,1.6462,1.6458,1.6461,1.6456,1.6459,1.6447,1.6447,1.6453,1.6448,1.6461,1.6446,1.6451,1.6451,1.6453,1.6488,1.6496,1.652,1.6476,1.6476,1.6477,0,1.6476,1.6477,1.6492,1.6488,1.649,1.6496,1.6497,1.65,1.6498,1.6495,1.6495,1.6486,1.6494,1.648,1.649,1.648,1.6482,1.648,1.6481,1.6481,1.6465,1.6489,1.6528,1.6532,1.6481,1.6481,1.6481,0,1.6501,1.6507,1.6516,1.6516,1.6512,1.6517,1.6515,1.6513,1.6514,1.6515,1.6517,1.6518,1.6519,1.6521,1.6513,1.6504,1.6525,1.651,1.6522,1.6522,1.6527,1.6527,1.6566,1.6528,1.6528,1.6528,1.6528,0,1.6528,1.6538,1.6528,1.6534,1.6544,1.6535,1.6546,1.6543,1.6541,1.6546,1.6535,1.654,1.6529,1.6534,1.6528,1.6538,1.6538,1.6535,1.6534,1.6537,1.6537,1.6537,1.6536,1.6529,1.6528,1.6528,1.6528,0,1.6558,1.6552,1.6562,1.6557,1.6557,1.6565,1.6561,1.6566,1.6562,1.6569,1.657,1.6563,1.6568,1.656,1.6563,1.6559,1.6574,1.6569,1.6574,1.6573,1.6586,1.6585,1.6628,1.6633,1.6591,1.6591,1.6591,0,1.6576,1.6583,1.658,1.6583,1.6582,1.6587,1.6589,1.6581,1.6583,1.6583,1.6589,1.6593,1.6595,1.6603,1.6598,1.6601,1.6597,1.6612,1.6597,1.66,1.6598,1.6598,1.6599,1.6615,1.6615,1.6616,1.6616,0,1.6608,1.6605,1.6608,1.6611,1.6615,1.6616,1.6617,1.662,1.6611,1.6615,1.662,1.6622,1.6627,1.6631,1.6633,1.6631,1.6622,1.6621,1.6624,1.6627,1.663,1.6629,1.6583,1.662,1.6619,1.6619,1.6619,1.6619,1.6633,1.6639,1.6638,1.6643,1.6643,1.6644,1.665,1.6647,1.6651,1.6654,1.6649,1.6655,1.6655,1.6657,1.6656,1.6661,1.6655,1.6659,1.666,1.6662,1.6664,1.6629,1.6662,1.6661,1.6661,1.6661,1.6661,0,1.6665,1.6664,1.6668,1.6671,1.6675,1.6667,1.6668,1.6672,1.6678,1.6678,1.6681,1.6688,1.6692,1.6688,1.6692,1.6697,1.6693,1.6698,1.6698,1.6698,1.6669,1.6666,1.6702,1.6702,1.6702,1.6702,1.6702,1.6702,1.6682,1.6693,1.669,1.67,1.6699,1.6706,1.6708,1.6709,1.671,1.6718,1.6722,1.6719,1.6718,1.6722,1.6726,1.6725,1.6727,1.6733,1.6731,1.6704,1.67,1.6696,1.6694,1.6734,1.6734,1.6759,1.676,1.676]},{"header":{"parameterUnit":"m.s-1","parameterCategory":1,"la1":30.2991,"la2":30.254,"lo1":-89.0895,"lo2":-89.0444,"dy":0.0017,"dx":0.0017,"nx":28,"ny":28,"refTime":"2025-12-30T03:00:00:Z","depth":0,"parameterNumber":3,"parameterNumberName":"V-component_of_WINDS"},"data":[0,0,0,0,0,0,0,0,0,0,0,0,0,0,0,0,0,0,0,0,0,0,0,0,0,0,0,0,0,0,0,0,0,0,0,0,0,0,0,0,0,0,0,0,0,0,0,0,0,0,0,0,0,0,0,0,0,0,-5.4893,-5.4894,0,-5.4999,-5.5,-5.5001,-5.4988,-5.4987,-5.4985,-5.4983,-5.5087,-5.5091,-5.5095,0,0,0,0,0,0,0,0,0,0,0,0,0,-5.4675,-5.4679,-5.4893,-5.4894,-5.4895,-5.4999,-5.5,-5.5002,-5.4989,-5.4987,-5.4984,-5.4983,-5.5085,-5.509,-5.5096,0,0,0,0,0,0,0,0,0,0,0,0,0,-5.4774,-5.4681,-5.4892,-5.4902,-5.4903,-5.4998,-5.5,-5.5002,-5.4989,-5.4986,-5.4984,-5.4982,-5.5084,-5.509,-5.5096,-5.5187,0,0,-5.5116,-5.5119,0,0,0,0,0,0,0,0,-5.4769,-5.4782,-5.4899,-5.4901,-5.4903,-5.4978,-5.4961,-5.5064,-5.499,-5.4956,-5.4983,-5.498,-5.5052,-5.5061,-5.5086,-5.5192,-5.5197,-5.5117,-5.5121,-5.5123,-5.5125,0,0,0,0,0,0,0,-5.4762,-5.4778,-5.4934,-5.4901,-5.4903,-5.4899,-5.491,-5.4981,-5.5017,-5.4959,-5.4958,-5.4971,-5.5053,-5.508,-5.5089,-5.5198,-5.5117,-5.5122,-5.5126,-5.5129,-5.5386,-5.5389,0,0,0,0,0,0,-5.4753,-5.4772,-5.4931,-5.4938,-5.4829,-5.4905,-5.4918,-5.4956,-5.5016,-5.5023,-5.4973,-5.497,-5.507,-5.5081,-5.5092,-5.5204,-5.5123,-5.5129,-5.5133,-5.5383,-5.5386,-5.539,0,0,0,0,0,0,-5.4749,-5.4768,-5.4927,-5.4855,-5.4875,-5.4912,-5.4955,-5.496,-5.4987,-5.5027,-5.5033,-5.4995,-5.5069,-5.5083,-5.5165,-5.5207,-5.5132,-5.5138,-5.5379,-5.5384,-5.5388,-5.5428,0,0,0,0,0,0,-5.4743,-5.4766,-5.4802,-5.4856,-5.4879,-5.4999,-5.4958,-5.4964,-5.4999,-5.4996,-5.5049,-5.5055,-5.5068,-5.5155,-5.5171,-5.5215,-5.5143,-5.5376,-5.5381,-5.5387,-5.5423,-5.5433,-5.5442,0,0,0,0,0,-5.4735,-5.4807,-5.4804,-5.4823,-5.4924,-5.5001,-5.5014,-5.5029,-5.5003,-5.5038,-5.5065,-5.5054,-5.52,-5.5163,-5.5181,-5.5228,-5.5373,-5.538,-5.5386,-5.5418,-5.5431,-5.5441,0,0,0,0,0,0,-5.4755,-5.4814,-5.4811,-5.4903,-5.4948,-5.4999,-5.5044,-5.5041,-5.5092,-5.5087,-5.5101,-5.5113,-5.5196,-5.522,-5.5178,-5.532,-5.5283,-5.5293,-5.5301,-5.5313,-5.5323,-5.5315,-5.5149,0,0,0,0,0,-5.477,-5.4829,-5.4877,-5.4954,-5.4977,-5.5007,-5.5041,-5.5049,-5.5094,-5.5112,-5.5144,-5.5187,-5.5243,-5.528,-5.5333,-5.5426,-5.5438,-5.5467,-5.5477,-5.5484,-5.5493,-5.5545,-5.5559,-5.5411,-5.5411,-5.5411,0,0,-5.4802,-5.4842,-5.4878,-5.4959,-5.4994,-5.5054,-5.5023,-5.5086,-5.5131,-5.5121,-5.5201,-5.5226,-5.5275,-5.5364,-5.5404,-5.5386,-5.5537,-5.5493,-5.5498,-5.5503,-5.5553,-5.5567,-5.558,-5.5416,-5.5415,-5.5414,0,0,-5.4891,-5.4927,-5.4996,-5.5033,-5.5087,-5.5107,-5.5124,-5.5177,-5.5194,-5.5274,-5.5269,-5.5321,-5.5417,-5.5453,-5.5483,-5.5589,-5.5581,-5.5606,-5.5655,-5.5705,-5.5717,-5.5727,-5.5765,-5.5779,-5.5614,-5.5614,-5.5614,0,-5.4923,-5.5015,-5.5031,-5.5097,-5.5133,-5.513,-5.5199,-5.5233,-5.5302,-5.5326,-5.5306,-5.5428,-5.5461,-5.5558,-5.5584,-5.5609,-5.5628,-5.5599,-5.5714,-5.5725,-5.5735,-5.5771,-5.5785,-5.5617,-5.5617,-5.5616,-5.5616,0,-5.5052,-5.5115,-5.5164,-5.5233,-5.5275,-5.5342,-5.5368,-5.5408,-5.5412,-5.5434,-5.5517,-5.5557,-5.5619,-5.5642,-5.5646,-5.5741,-5.5728,-5.5711,-5.5674,-5.5751,-5.5786,-5.58,-5.5621,-5.562,-5.5619,-5.5618,0,0,-5.5154,-5.5234,-5.5252,-5.5284,-5.5345,-5.5394,-5.5461,-5.5524,-5.5558,-5.5606,-5.5662,-5.5745,-5.573,-5.5765,-5.5773,-5.5818,-5.59,-5.5795,-5.5797,-5.5814,-5.6007,-5.6019,-5.6035,-5.5895,-5.5898,-5.59,-5.6003,0,-5.5249,-5.537,-5.5388,-5.5494,-5.5553,-5.5552,-5.5611,-5.5654,-5.5677,-5.5729,-5.5754,-5.5812,-5.5788,-5.581,-5.5854,-5.588,-5.5939,-5.5873,-5.5947,-5.5949,-5.5935,-5.6053,-5.6066,-5.6161,-5.6016,-5.6018,-5.602,0,-5.5376,-5.5431,-5.5543,-5.5598,-5.5624,-5.5676,-5.5737,-5.5787,-5.5836,-5.585,-5.5891,-5.5894,-5.5963,-5.5923,-5.6018,-5.5974,-5.6005,-5.6023,-5.6027,-5.6034,-5.5989,-5.6063,-5.6192,-5.6206,-5.6041,-5.604,-5.6038,0,-5.5441,-5.5541,-5.5623,-5.565,-5.5716,-5.5753,-5.5782,-5.5829,-5.5867,-5.5919,-5.5943,-5.6002,-5.6034,-5.6079,-5.6098,-5.6068,-5.6192,-5.6154,-5.6205,-5.6204,-5.623,-5.6228,-5.6365,-5.6251,-5.625,-5.625,-5.625,0,-5.5545,-5.5614,-5.5653,-5.5702,-5.578,-5.58,-5.5875,-5.5903,-5.5945,-5.6,-5.6001,-5.6052,-5.6074,-5.6128,-5.6143,-5.622,-5.6234,-5.6246,-5.625,-5.6247,-5.6245,-5.6267,-5.6261,-5.6254,-5.6253,-5.6252,-5.6252,0,-5.5629,-5.5658,-5.5747,-5.5803,-5.5819,-5.5874,-5.5921,-5.5969,-5.5992,-5.6061,-5.6079,-5.6114,-5.6178,-5.6202,-5.6279,-5.6289,-5.6378,-5.6376,-5.6362,-5.6363,-5.6412,-5.6408,-5.6568,-5.659,-5.6461,-5.6462,-5.6463,0,-5.5694,-5.5747,-5.5811,-5.5849,-5.588,-5.594,-5.5979,-5.6001,-5.6041,-5.6103,-5.6144,-5.6208,-5.626,-5.6362,-5.6394,-5.6454,-5.6453,-5.6505,-5.6461,-5.6457,-5.6454,-5.645,-5.6456,-5.6513,-5.6514,-5.6515,-5.6516,0,-5.5806,-5.5818,-5.5875,-5.5939,-5.5986,-5.6036,-5.6085,-5.6115,-5.6144,-5.619,-5.6257,-5.6298,-5.6378,-5.6442,-5.6503,-5.6531,-5.6529,-5.653,-5.6545,-5.6542,-5.6532,-5.6539,-5.6385,-5.6526,-5.6525,-5.6524,-5.6523,-5.6523,-5.5882,-5.5931,-5.5984,-5.6048,-5.6088,-5.6134,-5.6182,-5.6213,-5.627,-5.6338,-5.6347,-5.6419,-5.6468,-5.6551,-5.6582,-5.6637,-5.6623,-5.6644,-5.665,-5.6655,-5.6659,-5.6524,-5.6648,-5.6648,-5.6648,-5.6648,-5.6648,0,-5.5995,-5.6029,-5.6089,-5.6158,-5.6209,-5.6205,-5.6259,-5.6301,-5.6365,-5.6412,-5.6465,-5.6542,-5.6604,-5.6642,-5.6705,-5.6742,-5.6743,-5.6758,-5.6755,-5.6762,-5.6668,-5.6649,-5.6757,-5.6757,-5.6757,-5.6757,-5.6756,-5.6756,-5.6059,-5.6141,-5.616,-5.6262,-5.6296,-5.6368,-5.6399,-5.6442,-5.648,-5.6567,-5.662,-5.6645,-5.6688,-5.6754,-5.6811,-5.6821,-5.6843,-5.686,-5.6868,-5.6779,-5.6768,-5.6757,-5.674,-5.6865,-5.6865,-5.6958,-5.6959,-5.6959]}]]